Lid_Strength_Index
2 -0 -2 -1 -1 -1 -1 -1 -1 -1 -1 -1 -1 -1 -1 -1 -1 -2 -2 -2 -2 -2 -2 -2 -2 -2 -2 -2 -2 -2 -2 -2 -2 -2 -2 -2 -2 -2 -2 -1 -1 -1 -2
1 -0 -2 -1 -1 -1 -1 -1 -1 -1 -1 -1 -2 -2 -2 -1 -2 -2 -2 -2 -2 -2 -2 -2 -2 -2 -2 -2 -2 -2 -2 -2 -2 -2 -2 -2 -2 -2 -2 -1 -1 -1 -2
0 -0 -1 -2 -1 -2 -2 -1 -1 -1 -1 -1 -2 -2 -2 -2 -2 -2 -2 -2 -2 -2 -2 -1 -2 -2 -2 -2 -2 -2 -2 -2 -2 -2 -2 -0 -0 -2 -2 -2 -2 -2 -2
0 -0 -0 -2 -2 -2 -2 -2 -2 -2 -2 -2 -2 -2 -2 -2 -2 -2 -2 -2 -2 -2 -2 -1 -2 -2 -2 -2 -2 -2 -2 -2 -2 -2 -1 -1 -1 -2 -2 -2 -2 -2 -2
0 -0 -0 -2 -2 -2 -2 -2 -2 -2 -2 -2 -2 -2 -2 -2 -2 -2 -2 -2 -2 -2 -2 -2 -2 -2 -2 -2 -2 -2 -2 -2 -2 -1 0 0 -0 -1 -2 -2 -2 -2 -2
1 0 -1 -2 -2 -2 -2 -2 -2 -2 -2 -2 -2 -2 -2 -2 -2 -2 -2 -2 -2 -2 -2 -2 -2 -2 -2 -2 -2 -2 -3 -2 -1 0 -0 -1 -0 -2 -2 -2 -2 -2 -2
0 -0 -0 -2 -2 -2 -2 -2 -2 -2 -2 -2 -2 -2 -2 -2 -2 -2 -2 -2 -2 -2 -2 -2 -2 -2 -2 -2 -2 -3 -3 -2 1 1 1 0 -0 -2 -2 -2 -2 -2 -2
0 -0 -0 -2 -2 -2 -2 -2 -2 -2 -2 -1 -2 -2 -2 -2 -2 -2 -2 -2 -2 -2 -2 -2 -2 -2 -2 -2 -1 -2 -1 -1 1 2 2 1 -3 -3 -3 -2 -2 -2 -2
0 0 0 -0 -1 -2 -2 -2 -2 -1 -1 -2 -2 -2 -2 -2 -2 -2 -2 -2 -2 -2 -2 -2 -2 -2 -1 -1 -1 -3 -2 -0 4 3 2 2 -3 -3 -3 -2 -2 -2 -2
1 1 1 0 0 0 -0 -2 -1 -1 -2 -2 -2 -2 -2 -2 -2 -2 -2 -2 -2 -2 -1 -1 -0 0 -0 -1 -1 -1 -0 1 4 4 3 1 -3 -3 -2 -2 -2 -2 -2
1 1 1 1 0 0 -0 -1 -1 -2 -2 -2 -2 -2 -1 1 0 -0 -2 -1 -1 0 0 0 -0 0 0 -1 -1 0 2 5 4 3 3 -2 -1 -2 -2 -2 -2 -3 -2
2 1 1 1 1 0 -0 0 0 -0 0 1 0 0 2 3 2 1 0 -0 0 1 0 0 1 1 4 8 7 4 7 5 3 3 1 -2 -2 -1 -1 -2 -2 -2 -3
2 1 1 1 1 0 0 -0 -0 -0 0 1 1 2 2 2 4 5 6 5 5 3 6 6 7 7 8 8 8 8 7 6 5 4 2 -1 -2 -2 -1 -1 -2 -2 -3
2 2 1 1 0 0 -0 -0 -0 -0 1 3 3 3 4 4 6 7 7 8 8 7 8 8 8 9 9 9 10 10 9 8 7 6 3 -1 -2 -2 -2 -2 -2 -2 -2
2 2 1 1 1 0 0 1 1 4 5 6 7 6 7 7 8 8 9 9 9 9 9 9 9 9 9 9 10 10 10 9 7 6 5 1 -0 -1 -1 -2 -2 -2 -2
3 2 1 1 1 0 1 3 3 5 6 7 8 9 9 9 9 9 9 9 9 9 9 9 9 9 9 9 8 8 9 9 7 6 6 4 1 1 0 -0 -1 -1 -1
2 2 2 1 0 1 1 3 3 5 6 7 8 9 9 9 9 9 9 10 10 10 8 9 8 8 7 7 9 8 8 8 8 7 6 5 5 1 2 2 1 1 1
2 2 1 1 1 2 3 2 4 5 6 6 7 8 8 8 8 8 9 9 9 9 8 8 8 8 8 8 8 8 8 8 8 8 6 6 6 5 4 2 2 2 2
2 2 1 1 2 4 3 4 4 4 5 6 8 9 8 8 7 8 7 8 8 8 9 9 9 8 8 8 7 7 8 8 8 7 8 7 7 7 6 4 3 3 3
2 1 1 2 3 4 4 4 4 4 4 5 8 8 8 7 7 7 7 8 8 8 8 9 8 8 8 8 6 6 7 7 8 8 8 6 7 6 6 6 7 6 2
2 2 2 2 4 5 5 6 6 4 5 7 8 8 7 7 7 6 7 7 7 7 8 7 7 8 8 7 8 8 8 8 8 8 8 8 7 6 6 6 6 7 7
2 2 2 3 4 5 5 4 4 4 7 7 7 7 7 7 6 6 6 7 7 7 7 7 7 7 7 7 8 9 10 8 7 8 8 7 9 8 7 7 8 8 8
3 2 3 4 5 4 4 4 4 5 7 7 8 7 7 6 6 6 6 6 7 7 7 6 6 7 7 7 7 8 10 10 10 8 8 8 8 8 8 8 8 8 9
3 2 2 2 4 4 4 4 5 6 8 8 8 7 7 6 6 6 6 7 7 6 6 6 5 6 7 7 7 6 8 9 10 11 9 8 8 8 10 10 10 9 9
2 2 2 2 4 4 4 4 5 7 7 5 7 8 7 7 6 6 7 7 7 6 6 6 7 7 7 7 7 8 8 9 9 10 12 11 10 10 10 10 10 10 10
3 2 2 2 3 3 4 5 5 6 6 6 8 8 7 8 6 6 6 7 6 6 6 7 7 7 7 8 8 8 9 9 10 11 13 13 12 11 10 10 10 10 9